Weather History for Alpine, TX

Change the Weather History Date:

Sunday, February 17, 2013

  Actual Average (KMRF) Record (KMRF)
Temperature  
Mean Temperature 53 °F -  
Max Temperature 68 °F 59 °F 75 °F (2000)
Min Temperature 38 °F 29 °F 12 °F (1998)
Degree Days  
Heating Degree Days 12    
Growing Degree Days 3 (Base 50)    
Moisture  
Dew Point 15 °F    
Average Humidity 23    
Maximum Humidity 37    
Minimum Humidity 11    
Precipitation  
Precipitation 0.00 in - - ()
Sea Level Pressure  
Sea Level Pressure 30.07 in    
Wind  
Wind Speed 14 mph (South)    
Max Wind Speed 23 mph    
Max Gust Speed 29 mph    
Visibility 10 miles    
Events      
Averages and records for this station are not official NWS values.
T = Trace of Precipitation, MM = Missing Value Source: NWS Daily Summary

Daily Weather History Graph

Daily Weather History Graph

Search for Another Location

Airport:

Trip Planner

Search our weather history database for the weather conditions in past years. The results will help you decide how hot, cold, wet, or windy it might be!

Date:

Astronomy

Feb. 17, 2013 Rise Set
Actual Time 7:32 AM CST 6:44 PM CST
Civil Twilight 7:08 AM CST 7:09 PM CST
Nautical Twilight 6:40 AM CST 7:37 PM CST
Astronomical Twilight 6:12 AM CST 8:05 PM CST
Moon 12:00 PM CST (2/17) 1:10 AM CST (2/17)
Length of Visible Light 12h 00m
Length of Day
11h 12m
Waxing Crescent, 49% of the Moon is Illuminated
Feb 17
Waxing Crescent
Feb 17
First Quarter
Feb 25
Full
Mar 4
Last Quarter
Mar 11
New

Hourly Weather History & Observations

Time (CST) Temp. Windchill Dew Point Humidity Pressure Visibility Wind Dir Wind Speed Gust Speed Precip Events Conditions
12:15 AM 44.1 °F 36.8 °F 14.4 °F 30% 30.24 in 10.0 mi South 16.1 mph - N/A   Clear
12:35 AM 43.5 °F 37.9 °F 14.4 °F 31% 30.23 in 10.0 mi SSW 10.4 mph - N/A   Clear
12:55 AM 42.4 °F 36.5 °F 14.7 °F 33% 30.23 in 10.0 mi SSW 10.4 mph - N/A   Clear
1:15 AM 43.5 °F 36.4 °F 14.9 °F 32% 30.22 in 10.0 mi South 15.0 mph - N/A   Clear
1:35 AM 43.7 °F 35.7 °F 15.1 °F 32% 30.21 in 10.0 mi South 18.4 mph - N/A   Clear
1:55 AM 43.2 °F 34.7 °F 14.9 °F 32% 30.21 in 10.0 mi South 19.6 mph - N/A   Clear
2:15 AM 42.1 °F 33.9 °F 14.4 °F 33% 30.20 in 10.0 mi South 17.3 mph - N/A   Clear
2:35 AM 42.1 °F 34.2 °F 13.3 °F 31% 30.20 in 10.0 mi South 16.1 mph - N/A   Clear
2:55 AM 41.4 °F 33.3 °F 13.1 °F 32% 30.19 in 10.0 mi South 16.1 mph - N/A   Clear
3:15 AM 42.4 °F 34.4 °F 13.1 °F 30% 30.18 in 10.0 mi South 17.3 mph - N/A   Clear
3:35 AM 43.2 °F 34.5 °F 13.8 °F 31% 30.17 in 10.0 mi South 20.7 mph - N/A   Clear
3:55 AM 42.3 °F 33.8 °F 14.2 °F 32% 30.17 in 10.0 mi SSW 18.4 mph - N/A   Clear
4:15 AM 43.9 °F 36.5 °F 14.4 °F 30% 30.17 in 10.0 mi SSW 16.1 mph - N/A   Clear
4:35 AM 43.7 °F 36.9 °F 13.1 °F 29% 30.16 in 10.0 mi SSW 13.8 mph - N/A   Clear
4:55 AM 41.5 °F 34.2 °F 14.0 °F 33% 30.15 in 10.0 mi South 13.8 mph - N/A   Clear
5:15 AM 41.7 °F 33.7 °F 14.7 °F 34% 30.15 in 10.0 mi South 16.1 mph - N/A   Clear
5:35 AM 41.7 °F 36.1 °F 14.4 °F 33% 30.15 in 10.0 mi SSW 9.2 mph - N/A   Clear
5:55 AM 40.1 °F 32.7 °F 14.2 °F 35% 30.15 in 10.0 mi South 12.7 mph - N/A   Clear
6:15 AM 41.2 °F - 14.0 °F 33% 30.15 in 10.0 mi Calm Calm - N/A   Clear
6:35 AM 38.3 °F 31.9 °F 13.6 °F 37% 30.15 in 10.0 mi South 9.2 mph - N/A   Clear
6:55 AM 40.3 °F 33.9 °F 13.8 °F 34% 30.15 in 10.0 mi South 10.4 mph - N/A   Clear
7:15 AM 39.6 °F - 13.8 °F 35% 30.14 in 10.0 mi Calm Calm - N/A   Clear
7:35 AM 40.6 °F 33.0 °F 13.8 °F 34% 30.14 in 10.0 mi South 13.8 mph - N/A   Clear
7:55 AM 42.6 °F 35.2 °F 14.2 °F 32% 30.13 in 10.0 mi South 15.0 mph - N/A   Clear
8:15 AM 44.6 °F 38.4 °F 14.0 °F 29% 30.13 in 10.0 mi South 12.7 mph - N/A   Clear
8:35 AM 47.5 °F - 13.5 °F 26% 30.13 in 10.0 mi South 8.1 mph - N/A   Clear
8:55 AM 50.4 °F - 13.5 °F 23% 30.14 in 10.0 mi South 5.8 mph - N/A   Clear
9:15 AM 52.7 °F - 13.5 °F 21% 30.14 in 10.0 mi SSE 5.8 mph - N/A   Clear
9:35 AM 54.9 °F - 12.2 °F 18% 30.14 in 10.0 mi South 8.1 mph - N/A   Clear
9:55 AM 56.7 °F - 12.0 °F 17% 30.14 in 10.0 mi South 15.0 mph - N/A   Clear
10:15 AM 58.3 °F - 12.9 °F 17% 30.13 in 10.0 mi South 15.0 mph - N/A   Clear
10:35 AM 59.7 °F - 12.9 °F 16% 30.12 in 10.0 mi South 17.3 mph - N/A   Clear
10:55 AM 61.2 °F - 13.3 °F 15% 30.12 in 10.0 mi South 17.3 mph - N/A   Clear
11:15 AM 61.9 °F - 13.5 °F 15% 30.11 in 10.0 mi South 21.9 mph - N/A   Clear
11:35 AM 62.2 °F - 13.6 °F 15% 30.11 in 10.0 mi South 18.4 mph - N/A   Clear
11:55 AM 63.0 °F - 14.4 °F 15% 30.10 in 10.0 mi South 13.8 mph 19.6 mph N/A   Clear
12:15 PM 63.0 °F - 14.7 °F 15% 30.09 in 10.0 mi South 15.0 mph 23.0 mph N/A   Clear
12:55 PM 64.2 °F - 15.4 °F 15% 30.06 in 10.0 mi South 12.7 mph 24.2 mph N/A   Clear
1:15 PM 65.3 °F - 15.6 °F 15% 30.04 in 10.0 mi SSW 19.6 mph 24.2 mph N/A   Clear
1:35 PM 66.4 °F - 16.0 °F 14% 30.03 in 10.0 mi SSW 23.0 mph 26.5 mph N/A   Clear
1:55 PM 66.0 °F - 16.3 °F 15% 30.02 in 10.0 mi SSW 20.7 mph 25.3 mph N/A   Clear
2:15 PM 66.7 °F - 16.7 °F 15% 30.00 in 10.0 mi SSW 23.0 mph 28.8 mph N/A   Clear
2:35 PM 66.7 °F - 17.2 °F 15% 29.99 in 10.0 mi SSW 20.7 mph 27.6 mph N/A   Clear
2:55 PM 67.3 °F - 17.8 °F 15% 29.98 in 10.0 mi South 20.7 mph 27.6 mph N/A   Clear
3:15 PM 67.6 °F - 18.1 °F 15% 29.98 in 10.0 mi South 19.6 mph 27.6 mph N/A   Clear
3:35 PM 68.0 °F - 18.1 °F 15% 29.97 in 10.0 mi South 13.8 mph - N/A   Clear
3:55 PM 68.2 °F - 17.2 °F 14% 29.97 in 10.0 mi SSW 11.5 mph 24.2 mph N/A   Clear
4:15 PM 68.2 °F - 17.1 °F 14% 29.96 in 10.0 mi South 12.7 mph 21.9 mph N/A   Clear
4:35 PM 68.7 °F - 16.3 °F 13% 29.95 in 10.0 mi SSW 12.7 mph 19.6 mph N/A   Clear
4:55 PM 68.4 °F - 16.3 °F 14% 29.95 in 10.0 mi South 17.3 mph 23.0 mph N/A   Clear
5:15 PM 67.6 °F - 16.9 °F 14% 29.95 in 10.0 mi South 15.0 mph - N/A   Clear
5:35 PM 66.9 °F - 18.0 °F 15% 29.95 in 10.0 mi SSE 13.8 mph 17.3 mph N/A   Clear
5:55 PM 66.7 °F - 16.2 °F 14% 29.95 in 10.0 mi SSW 8.1 mph - N/A   Clear
6:15 PM 66.0 °F - 10.0 °F 11% 29.95 in 10.0 mi SSW 11.5 mph 17.3 mph N/A   Clear
6:35 PM 63.1 °F - 13.5 °F 14% 29.96 in 10.0 mi SSW 9.2 mph - N/A   Clear
6:55 PM 58.8 °F - 13.8 °F 17% 29.96 in 10.0 mi South 10.4 mph - N/A   Clear
7:15 PM 55.2 °F - 14.4 °F 20% 29.97 in 10.0 mi South 9.2 mph - N/A   Clear
7:35 PM 52.5 °F - 15.3 °F 23% 29.96 in 10.0 mi South 8.1 mph - N/A   Clear
7:55 PM 52.5 °F - 15.8 °F 23% 29.96 in 10.0 mi SSE 6.9 mph - N/A   Clear
8:15 PM 53.6 °F - 15.6 °F 22% 29.96 in 10.0 mi South 8.1 mph - N/A   Clear
8:35 PM 53.2 °F - 15.8 °F 23% 29.96 in 10.0 mi South 11.5 mph - N/A   Clear
8:55 PM 55.0 °F - 16.0 °F 22% 29.96 in 10.0 mi South 10.4 mph - N/A   Clear
9:15 PM 52.3 °F - 15.4 °F 23% 29.97 in 10.0 mi South 9.2 mph - N/A   Clear
9:35 PM 53.1 °F - 15.3 °F 22% 29.96 in 10.0 mi South 12.7 mph - N/A   Clear
9:55 PM 55.4 °F - 16.5 °F 22% 29.96 in 10.0 mi South 10.4 mph - N/A   Clear
10:15 PM 53.8 °F - 18.1 °F 25% 29.96 in 10.0 mi SSE 11.5 mph - N/A   Clear
10:35 PM 54.0 °F - 19.2 °F 26% 29.96 in 10.0 mi SSE 13.8 mph - N/A   Clear
10:55 PM 55.6 °F - 19.2 °F 24% 29.96 in 10.0 mi SSE 8.1 mph - N/A   Clear
11:15 PM 52.3 °F - 18.3 °F 26% 29.96 in 10.0 mi South 6.9 mph - N/A   Clear
11:35 PM 52.0 °F - 17.8 °F 26% 29.95 in 10.0 mi SSW 9.2 mph - N/A   Clear
11:55 PM 50.7 °F - 17.8 °F 27% 29.95 in 10.0 mi SSW 5.8 mph - N/A   Clear